Погода в Боне

Франция     47°01′40″N   4°50′23″E
темп.,
°C
ветер,
м/с
пор.,
м/с
влажн.,
%
обл.,
%
осадки,
мм/ч
давл.,
гПа
погр.,
м
2 марта, вт
вт201:00+5в11880 0.0 102922
04:00+4всв12919 0.0 102922
07:00+3вюв129233 0.0 103026
10:00+8ююв38730 0.0 1030362
13:00+13ююв5105611 0.0 1029610
16:00+15ююв495426 0.0 1028779
19:00+8ююв237030 0.0 102927
22:00+6юв127142 0.0 103122
3 марта, ср
ср301:00+5ююв117629 0.0 103122
04:00+4ю117462 0.0 103122
07:00+3юз127234 0.0 103122
10:00+9ю125943 0.0 1031166
13:00+13ююв225244 0.0 1029439
16:00+14ююв225419 0.0 1027417
19:00+8вюв007020 0.0 102722
22:00+7ссз00720 0.0 102622
4 марта, чт
чт401:00+6юз117532 0.0 102622
04:00+6юз1173100 0.0 102422
07:00+6ююз1274100 0.0 102427
10:00+9зюз1171100 0.0 1022195
13:00+11з126698 0.1 1021526
16:00+13вюв126451 0.1 1018896
19:00+8ссз128763 1.3 101922
22:00+6ссз239437 0.0 102043
5 марта, пт
пт501:00+5сз229520 0.0 102027
04:00+4ссз229415 0.0 102028
07:00+5с259456 0.0 1020309
10:00+6ссв4684100 0.0 1021680
13:00+7ссв4677100 0.1 1022863
16:00+5с577898 0.1 1022820
19:00+3ссв597787 0.1 1024701
22:00+1ссв5127772 0.0 1026482
6 марта, сб
сб601:000ссв4128243 0.0 1027545
04:000св614810 0.0 1027520
07:00−1св614730 0.0 1028528
10:00+2св711640 0.0 1028628
13:00+6св710560 0.0 1027873
16:00+7св69540 0.0 1026883
19:00+2св413610 0.0 1027393
22:00+1св514590 0.0 1028368